This is the latest recevied weather packets stored in our database for station/object N5XJB. If no packets are shown the sender has not sent any weather packets the latest 10 day(s).
| Time | Temp. | Humidity | Pressure | Rain* | Wind** | Luminosity | Snow |
|---|---|---|---|---|---|---|---|
| 1777556514 | 23.89° C | 93% | 1011.4 hPa | 0 mm | - | 245 W/m² | - |
| 1777556213 | 23.89° C | 93% | 1011.7 hPa | 0 mm | - | 137 W/m² | - |
| 1777555910 | 23.89° C | 94% | 1011.4 hPa | 0 mm | - | 148 W/m² | - |
| 1777555605 | 23.33° C | 94% | 1011.4 hPa | 0 mm | - | 159 W/m² | - |
| 1777555303 | 23.33° C | 95% | 1011.4 hPa | 0 mm | - | 106 W/m² | - |
| 1777554999 | 23.33° C | 95% | 1011 hPa | 0 mm | - | 127 W/m² | - |
| 1777554696 | 22.78° C | 96% | 1011 hPa | 0 mm | - | 125 W/m² | - |
| 1777554393 | 22.22° C | 97% | 1011 hPa | 0 mm | - | 143 W/m² | - |
| 1777554090 | 22.22° C | 98% | 1011 hPa | 0 mm | - | 128 W/m² | - |
| 1777553786 | 21.67° C | 98% | 1010.7 hPa | 0.25 mm | - | 102 W/m² | - |
| 1777553483 | 21.67° C | 98% | 1010.7 hPa | 0.25 mm | - | 81 W/m² | - |
| 1777553179 | 21.67° C | 98% | 1010.7 hPa | 0.25 mm | - | 67 W/m² | - |
| 1777552874 | 21.67° C | 98% | 1010.7 hPa | 0.25 mm | - | 55 W/m² | - |
| 1777552569 | 21.67° C | 98% | 1011.4 hPa | 0.25 mm | - | 17 W/m² | - |
| 1777552266 | 21.67° C | 98% | 1011.4 hPa | 0.25 mm | - | 7 W/m² | - |
| 1777551963 | 21.67° C | 98% | 1011.4 hPa | 0.25 mm | - | 4 W/m² | - |
| 1777551660 | 21.67° C | 98% | 1011.4 hPa | 0.25 mm | - | 4 W/m² | - |
| 1777551358 | 21.67° C | 98% | 1011.4 hPa | 0.25 mm | - | 3 W/m² | - |
| 1777551054 | 21.11° C | 98% | 1011.4 hPa | 0.25 mm | - | 4 W/m² | - |
| 1777550751 | 21.11° C | 98% | 1011.4 hPa | 0 mm | - | 2 W/m² | - |
| 1777550447 | 21.67° C | 98% | 1011.7 hPa | 0 mm | - | 1 W/m² | - |
| 1777550144 | 21.67° C | 98% | 1011 hPa | 0 mm | - | 1 W/m² | - |
| 1777549840 | 21.67° C | 98% | 1011.4 hPa | 0 mm | - | 1 W/m² | - |
| 1777549536 | 21.67° C | 98% | 1011 hPa | 0 mm | - | 0 W/m² | - |
| 1777549232 | 22.22° C | 98% | 1011.4 hPa | 0 mm | - | 0 W/m² | - |
* Rain latest hour (hover to see other rain measurements)
** Current wind speed in m/s (hover to see current wind gust speed)